DW6064 Weather Reports


Display with metric or nautical units.
time (UTC)temp
F
wind
direction
speed
MPH
gust
MPH
rain 1hr
in
rain 24hr
in
rain mn
in
humidity
%
barometer
mb
20260508175536 67 229 5.0 19.0 0.00 0.00 0.00 39 1011.6
20260508175034 67 231 4.0 19.0 0.00 0.00 0.00 39 1011.7
20260508174552 67 182 7.0 16.0 0.00 0.00 0.00 37 1011.7
20260508174050 67 297 5.0 13.0 0.00 0.00 0.00 39 1011.8
20260508173541 66 237 5.0 13.0 0.00 0.00 0.00 40 1011.9
20260508173034 66 234 6.0 17.0 0.00 0.00 0.00 37 1011.9
20260508172527 66 191 7.0 19.0 0.00 0.00 0.00 39 1012.0
20260508172043 67 248 7.0 14.0 0.00 0.00 0.00 38 1011.9
20260508171536 67 225 5.0 14.0 0.00 0.00 0.00 38 1012.3
20260508171028 68 208 7.0 19.0 0.00 0.00 0.00 38 1012.3
20260508170542 67 243 9.0 19.0 0.00 0.00 0.00 39 1012.4
20260508170037 67 254 6.0 14.0 0.00 0.00 0.00 40 1012.4
20260508165554 66 190 5.0 10.0 0.00 0.00 0.00 39 1012.5
20260508165027 66 232 5.0 16.0 0.00 0.00 0.00 40 1012.5
20260508164536 65 228 8.0 16.0 0.00 0.00 0.00 39 1012.6
20260508164030 65 207 4.0 17.0 0.00 0.00 0.00 41 1012.7
20260508163524 65 182 7.0 17.0 0.00 0.00 0.00 42 1012.8
20260508163045 63 223 6.0 15.0 0.00 0.00 0.00 43 1012.9
20260508162541 62 254 8.0 15.0 0.00 0.00 0.00 42 1012.9
20260508162044 62 218 8.0 15.0 0.00 0.00 0.00 41 1013.0
20260508161538 62 265 7.0 20.0 0.00 0.00 0.00 43 1012.9
20260508161033 61 250 11.0 20.0 0.00 0.00 0.00 42 1013.1
20260508160528 61 278 11.0 20.0 0.00 0.00 0.00 41 1013.1
20260508160047 62 209 5.0 19.0 0.00 0.00 0.00 40 1013.1
20260508155539 62 252 11.0 18.0 0.00 0.00 0.00 42 1013.3
20260508155044 62 244 11.0 18.0 0.00 0.00 0.00 41 1013.2
20260508154541 62 262 4.0 15.0 0.00 0.00 0.00 41 1013.3
20260508154044 62 245 7.0 17.0 0.00 0.00 0.00 42 1013.4
20260508153541 62 236 9.0 17.0 0.00 0.00 0.00 41 1013.3
20260508153041 62 223 7.0 16.0 0.00 0.00 0.00 40 1013.4
20260508152535 62 242 6.0 11.0 0.00 0.00 0.00 42 1013.3
20260508152026 62 279 5.0 14.0 0.00 0.00 0.00 43 1013.3
20260508151541 62 210 6.0 19.0 0.00 0.00 0.00 42 1013.4
20260508151103 63 227 7.0 20.0 0.00 0.00 0.00 40 1013.4
20260508150539 63 215 5.0 20.0 0.00 0.00 0.00 41 1013.5
20260508150034 62 255 6.0 21.0 0.00 0.00 0.00 41 1013.4
20260508145525 62 235 6.0 21.0 0.00 0.00 0.00 43 1013.4
20260508145045 62 211 10.0 18.0 0.00 0.00 0.00 42 1013.4
20260508144537 62 231 5.0 18.0 0.00 0.00 0.00 45 1013.4
20260508144033 62 215 5.0 17.0 0.00 0.00 0.00 44 1013.5
20260508143525 61 196 6.0 18.0 0.00 0.00 0.00 43 1013.5
20260508143044 61 229 6.0 18.0 0.00 0.00 0.00 42 1013.5
20260508142538 61 236 7.0 17.0 0.00 0.00 0.00 42 1013.4
20260508142041 60 236 7.0 18.0 0.00 0.00 0.00 44 1013.5
20260508141532 60 252 7.0 18.0 0.00 0.00 0.00 45 1013.5
20260508141052 59 238 8.0 15.0 0.00 0.00 0.00 45 1013.6
20260508140524 59 230 5.0 14.0 0.00 0.00 0.00 50 1013.7
20260508140039 58 223 4.0 17.0 0.00 0.00 0.00 54 1013.7
20260508135532 57 194 8.0 17.0 0.00 0.00 0.00 51 1013.7
20260508135027 57 209 5.0 13.0 0.00 0.00 0.00 53 1013.7
20260508134543 57 190 9.0 14.0 0.00 0.00 0.00 53 1013.9
20260508134041 56 206 4.0 10.0 0.00 0.00 0.00 54 1013.8
20260508133540 56 228 4.0 13.0 0.00 0.00 0.00 57 1013.8
20260508133040 55 198 7.0 13.0 0.00 0.00 0.00 53 1013.8
20260508132531 55 234 5.0 17.0 0.00 0.00 0.00 57 1013.8
20260508132027 54 244 4.0 17.0 0.00 0.00 0.00 58 1013.9
20260508131545 53 243 5.0 10.0 0.00 0.00 0.00 61 1014.1
20260508131044 53 184 7.0 12.0 0.00 0.00 0.00 60 1014.1
20260508130542 53 173 6.0 12.0 0.00 0.00 0.00 62 1014.1
20260508130057 52 174 5.0 9.0 0.00 0.00 0.00 61 1014.1
20260508125551 51 191 7.0 9.0 0.00 0.00 0.00 64 1014.2
20260508125026 50 144 6.0 10.0 0.00 0.00 0.00 64 1014.2
20260508124539 50 159 8.0 11.0 0.00 0.00 0.00 66 1014.2
20260508124042 49 167 7.0 10.0 0.00 0.00 0.00 66 1014.2
20260508123531 49 159 8.0 10.0 0.00 0.00 0.00 65 1014.2
20260508123027 49 146 6.0 10.0 0.00 0.00 0.00 67 1014.1
20260508122539 48 171 6.0 9.0 0.00 0.00 0.00 67 1014.2
20260508122042 48 162 6.0 9.0 0.00 0.00 0.00 67 1014.2
20260508121540 48 159 6.0 9.0 0.00 0.00 0.00 68 1014.2
20260508121034 48 161 7.0 7.0 0.00 0.00 0.00 68 1014.1
20260508120525 47 180 5.0 7.0 0.00 0.00 0.00 70 1014.1
20260508120044 47 180 6.0 7.0 0.00 0.00 0.00 70 1014.1
20260508115539 47 190 5.0 8.0 0.00 0.00 0.00 71 1014.0
20260508115035 46 183 6.0 8.0 0.00 0.00 0.00 70 1013.9
20260508114525 46 153 6.0 10.0 0.00 0.00 0.00 71 1013.7
20260508114044 45 153 7.0 8.0 0.00 0.00 0.00 71 1013.7
20260508113539 45 164 5.0 9.0 0.00 0.00 0.00 71 1013.7
20260508113041 44 169 6.0 7.0 0.00 0.00 0.00 72 1013.7
20260508112540 44 169 5.0 6.0 0.00 0.00 0.00 73 1013.7
20260508112034 43 169 6.0 7.0 0.00 0.00 0.00 73 1013.5
20260508111527 43 166 4.0 6.0 0.00 0.00 0.00 75 1013.4
20260508111045 42 167 3.0 6.0 0.00 0.00 0.00 75 1013.5
20260508110537 42 167 3.0 6.0 0.00 0.00 0.00 75 1013.5
20260508110040 42 162 3.0 7.0 0.00 0.00 0.00 75 1013.4
20260508105533 42 147 3.0 9.0 0.00 0.00 0.00 75 1013.4
20260508105028 41 143 5.0 9.0 0.00 0.00 0.00 75 1013.4
20260508104545 41 136 4.0 7.0 0.00 0.00 0.00 76 1013.2
20260508104044 41 150 4.0 5.0 0.00 0.00 0.00 76 1013.2
20260508103542 41 139 3.0 6.0 0.00 0.00 0.00 76 1013.2
20260508103041 41 148 4.0 7.0 0.00 0.00 0.00 76 1013.0
20260508102539 41 140 4.0 7.0 0.00 0.00 0.00 76 1013.0
20260508102036 41 146 4.0 6.0 0.00 0.00 0.00 76 1013.0
20260508101554 41 153 3.0 6.0 0.00 0.00 0.00 76 1013.0
20260508101027 41 142 3.0 5.0 0.00 0.00 0.00 76 1013.0
20260508100541 41 152 3.0 5.0 0.00 0.00 0.00 76 1013.0
20260508100040 41 148 3.0 6.0 0.00 0.00 0.00 76 1012.9
20260508095539 41 161 3.0 6.0 0.00 0.00 0.00 76 1012.9
20260508095040 41 142 3.0 6.0 0.00 0.00 0.00 76 1012.8
20260508094534 42 155 2.0 7.0 0.00 0.00 0.00 75 1012.7
20260508094056 42 153 3.0 7.0 0.00 0.00 0.00 75 1012.6
20260508093527 42 136 3.0 5.0 0.00 0.00 0.00 75 1012.6
20260508093026 42 140 2.0 3.0 0.00 0.00 0.00 75 1012.6
20260508092557 42 140 2.0 4.0 0.00 0.00 0.00 74 1012.7
20260508092036 43 144 2.0 4.0 0.00 0.00 0.00 74 1012.7
20260508091529 43 144 2.0 4.0 0.00 0.00 0.00 74 1012.7
20260508091048 43 144 2.0 4.0 0.00 0.00 0.00 74 1012.7
20260508090547 43 141 3.0 4.0 0.00 0.00 0.00 74 1012.7
20260508090042 43 148 2.0 3.0 0.00 0.00 0.00 74 1012.8
20260508085541 43 140 1.0 3.0 0.00 0.00 0.00 74 1012.9
20260508085043 43 135 1.0 3.0 0.00 0.00 0.00 73 1012.9
20260508084541 43 135 2.0 3.0 0.00 0.00 0.00 73 1012.8
20260508084038 43 135 1.0 2.0 0.00 0.00 0.00 71 1012.8
20260508083533 44 135 0.0 2.0 0.00 0.00 0.00 71 1012.7
20260508083027 44 135 0.0 3.0 0.00 0.00 0.00 70 1012.7
20260508082536 44 135 2.0 3.0 0.00 0.00 0.00 70 1012.7
20260508082029 45 140 2.0 4.0 0.00 0.00 0.00 69 1012.7
20260508081544 45 137 2.0 4.0 0.00 0.00 0.00 69 1012.6
20260508081045 45 129 1.0 3.0 0.00 0.00 0.00 68 1012.5
20260508080537 45 129 1.0 3.0 0.00 0.00 0.00 67 1012.5
20260508075532 46 10 2.0 3.0 0.00 0.00 0.00 66 1012.5
20260508075028 46 10 0.0 0.0 0.00 0.00 0.00 66 1012.5
20260508074539 46 10 0.0 0.0 0.00 0.00 0.00 65 1012.4
20260508074044 46 10 0.0 2.0 0.00 0.00 0.00 65 1012.5
20260508073539 47 10 1.0 3.0 0.00 0.00 0.00 64 1012.4
20260508073042 47 10 1.0 3.0 0.00 0.00 0.00 62 1012.5
20260508072536 47 10 0.0 0.0 0.00 0.00 0.00 62 1012.4
20260508072033 48 10 0.0 3.0 0.00 0.00 0.00 62 1012.5
20260508071524 48 10 1.0 3.0 0.00 0.00 0.00 62 1012.4
20260508071043 48 10 0.0 0.0 0.00 0.00 0.00 61 1012.4
20260508070540 48 10 0.0 0.0 0.00 0.00 0.00 61 1012.4
20260508070035 48 10 0.0 0.0 0.00 0.00 0.00 60 1012.4
20260508065529 48 10 0.0 2.0 0.00 0.00 0.00 59 1012.4
20260508065025 49 10 1.0 2.0 0.00 0.00 0.00 57 1012.4
20260508064539 49 10 0.0 2.0 0.00 0.00 0.00 56 1012.3
20260508064039 49 10 0.0 2.0 0.00 0.00 0.00 55 1012.4
20260508063559 50 10 0.0 1.0 0.00 0.00 0.00 56 1012.5
20260508063058 50 10 0.0 2.0 0.00 0.00 0.00 54 1012.4
20260508062531 50 10 0.0 2.0 0.00 0.00 0.00 53 1012.4
20260508062025 51 10 0.0 3.0 0.00 0.00 0.00 54 1012.5
20260508061602 51 10 1.0 3.0 0.00 0.00 0.00 53 1012.4
20260508061041 51 10 1.0 5.0 0.00 0.00 0.00 52 1012.4
20260508060559 51 10 1.0 6.0 0.00 0.00 0.00 52 1012.4
20260508060041 51 343 2.0 11.0 0.00 0.00 0.00 51 1012.3
20260508055535 52 330 4.0 11.0 0.00 0.00 0.00 51 1012.3
20260508055031 52 313 3.0 6.0 0.00 0.00 0.00 51 1012.3
20260508054524 52 332 3.0 8.0 0.00 0.00 0.00 51 1012.3
20260508054045 53 310 2.0 8.0 0.00 0.00 0.00 51 1012.3
20260508053543 53 315 3.0 10.0 0.00 0.00 0.00 50 1012.3
20260508053103 53 306 4.0 16.0 0.00 0.00 0.00 49 1012.3
20260508052540 53 339 6.0 16.0 0.00 0.00 0.00 48 1012.2
20260508052040 53 300 5.0 16.0 0.00 0.00 0.00 49 1012.2
20260508051534 53 336 9.0 16.0 0.00 0.00 0.00 49 1012.1
20260508051026 53 296 9.0 16.0 0.00 0.00 0.00 50 1012.2
20260508050544 53 342 5.0 9.0 0.00 0.00 0.00 50 1012.2
20260508050105 53 302 4.0 9.0 0.00 0.00 0.00 51 1012.2
20260508045601 54 298 5.0 13.0 0.00 0.00 0.00 50 1012.2
20260508045100 54 330 8.0 13.0 0.00 0.00 0.00 49 1012.0
20260508044534 54 319 6.0 12.0 0.00 0.00 0.00 49 1011.9
20260508044031 54 340 3.0 8.0 0.00 0.00 0.00 49 1011.7
20260508043525 54 310 2.0 12.0 0.00 0.00 0.00 49 1011.7
20260508043103 54 313 5.0 12.0 0.00 0.00 0.00 47 1011.6
20260508042535 54 306 5.0 12.0 0.00 0.00 0.00 47 1011.4
20260508042056 55 292 3.0 8.0 0.00 0.00 0.00 47 1011.3
20260508041529 55 321 4.0 8.0 0.00 0.00 0.00 46 1011.3
20260508041027 55 315 3.0 8.0 0.00 0.00 0.00 46 1011.2
20260508040544 55 329 4.0 8.0 0.00 0.00 0.00 46 1011.2
20260508040039 55 298 3.0 14.0 0.00 0.00 0.00 45 1011.1
20260508035541 56 308 5.0 14.0 0.00 0.00 0.00 45 1011.0
20260508035042 56 279 6.0 14.0 0.00 0.00 0.00 43 1010.9
20260508034533 56 288 5.0 13.0 0.00 0.00 0.00 43 1010.8
20260508034027 56 271 7.0 14.0 0.00 0.00 0.00 44 1010.8
20260508033544 56 295 8.0 15.0 0.00 0.00 0.00 43 1010.7
20260508033041 56 221 6.0 15.0 0.00 0.00 0.00 44 1010.6
20260508032541 56 281 6.0 15.0 0.00 0.00 0.00 44 1010.6
20260508032040 56 310 5.0 11.0 0.00 0.00 0.00 44 1010.6
20260508031530 55 288 5.0 12.0 0.00 0.00 0.00 44 1010.5
20260508031026 55 288 4.0 12.0 0.00 0.00 0.00 45 1010.4
20260508030543 55 264 5.0 11.0 0.00 0.00 0.00 45 1010.4
20260508030044 55 278 4.0 8.0 0.00 0.00 0.00 46 1010.4
20260508025541 55 256 4.0 7.0 0.00 0.00 0.00 46 1010.3
20260508025042 55 271 4.0 7.0 0.00 0.00 0.00 47 1010.3
20260508024538 55 258 3.0 6.0 0.00 0.00 0.00 47 1010.4
20260508024039 56 251 3.0 6.0 0.00 0.00 0.00 45 1010.3
20260508023533 56 265 2.0 6.0 0.00 0.00 0.00 47 1010.3
20260508023027 56 221 2.0 7.0 0.00 0.00 0.00 45 1010.2
20260508022543 56 261 3.0 7.0 0.00 0.00 0.00 46 1010.3
20260508022041 56 257 3.0 5.0 0.00 0.00 0.00 46 1010.2
20260508021530 56 252 3.0 6.0 0.00 0.00 0.00 45 1010.2
20260508021048 57 247 3.0 4.0 0.00 0.00 0.00 46 1010.2
20260508020542 57 254 2.0 6.0 0.00 0.00 0.00 46 1010.1
20260508020042 57 257 3.0 7.0 0.00 0.00 0.00 46 1010.0
20260508015539 57 251 3.0 7.0 0.00 0.00 0.00 45 1010.0
20260508015035 57 269 2.0 3.0 0.00 0.00 0.00 46 1010.0
20260508014525 58 269 1.0 3.0 0.00 0.00 0.00 45 1010.0
20260508014043 58 269 1.0 4.0 0.00 0.00 0.00 44 1009.9
20260508013600 58 269 1.0 4.0 0.00 0.00 0.00 47 1009.8
20260508013035 58 279 2.0 4.0 0.00 0.00 0.00 45 1009.7
20260508012527 59 273 2.0 4.0 0.00 0.00 0.00 45 1009.6
20260508012045 59 277 1.0 5.0 0.00 0.00 0.00 45 1009.6
20260508011541 59 275 3.0 5.0 0.00 0.00 0.00 43 1009.5
20260508011038 59 258 3.0 4.0 0.00 0.00 0.00 41 1009.5
20260508010540 60 257 2.0 4.0 0.00 0.00 0.00 42 1009.4
20260508010059 60 250 1.0 4.0 0.00 0.00 0.00 41 1009.2
20260508005533 60 279 1.0 4.0 0.00 0.00 0.00 41 1009.2
20260508005024 61 264 1.0 4.0 0.00 0.00 0.00 41 1009.1
20260508004540 61 263 2.0 4.0 0.00 0.00 0.00 40 1009.1
20260508004037 61 282 2.0 4.0 0.00 0.00 0.00 40 1009.0
20260508003531 61 289 2.0 5.0 0.00 0.00 0.00 40 1009.0
20260508003049 62 299 3.0 8.0 0.00 0.00 0.00 39 1008.9
20260508002540 62 259 4.0 9.0 0.00 0.00 0.00 38 1008.8
20260508002033 62 254 2.0 10.0 0.00 0.00 0.00 38 1008.8
20260508001525 62 279 6.0 11.0 0.00 0.00 0.00 38 1008.7
20260508001105 63 241 7.0 11.0 0.00 0.00 0.00 37 1008.7
20260508000541 63 269 5.0 10.0 0.00 0.00 0.00 38 1008.6
20260508000041 63 288 2.0 9.0 0.00 0.00 0.00 38 1008.5
20260507235533 63 310 4.0 8.0 0.00 0.00 0.00 38 1008.4
20260507235024 64 303 3.0 10.0 0.00 0.00 0.00 38 1008.4
20260507234542 64 280 5.0 10.0 0.00 0.00 0.00 35 1008.4
20260507234059 64 296 4.0 11.0 0.00 0.00 0.00 36 1008.4
20260507233526 64 319 7.0 11.0 0.00 0.00 0.00 36 1008.3
20260507233044 65 271 5.0 11.0 0.00 0.00 0.00 35 1008.4
20260507232534 65 261 5.0 10.0 0.00 0.00 0.00 35 1008.3
20260507232027 65 268 5.0 14.0 0.00 0.00 0.00 34 1008.2
20260507231604 66 275 7.0 15.0 0.00 0.00 0.00 33 1008.2
20260507231103 66 309 8.0 15.0 0.00 0.00 0.00 33 1008.1
20260507230534 66 326 7.0 22.0 0.00 0.00 0.00 34 1008.0
20260507230029 66 313 10.0 22.0 0.00 0.00 0.00 33 1008.0
20260507225605 66 321 5.0 15.0 0.00 0.00 0.00 34 1007.8
20260507225037 66 336 7.0 17.0 0.00 0.00 0.00 33 1007.8
20260507224531 66 284 10.0 17.0 0.00 0.00 0.00 31 1007.7
20260507224026 67 307 5.0 15.0 0.00 0.00 0.00 34 1007.7
20260507223542 67 318 6.0 15.0 0.00 0.00 0.00 33 1007.7
20260507223042 67 328 4.0 15.0 0.00 0.00 0.00 33 1007.6
20260507222538 68 319 7.0 15.0 0.00 0.00 0.00 34 1007.6
20260507222033 68 288 8.0 15.0 0.00 0.00 0.00 32 1007.5
20260507221526 68 355 7.0 14.0 0.00 0.00 0.00 32 1007.5
20260507221104 68 323 8.0 14.0 0.00 0.00 0.00 31 1007.5
20260507220600 69 334 8.0 14.0 0.00 0.00 0.00 32 1007.4
20260507220038 69 332 6.0 11.0 0.00 0.00 0.00 32 1007.4
20260507215530 70 325 4.0 12.0 0.00 0.01 0.00 29 1007.3
20260507215026 70 304 7.0 18.0 0.00 0.01 0.00 31 1007.3
20260507214542 70 328 11.0 18.0 0.00 0.01 0.00 30 1007.3
20260507214042 71 330 6.0 13.0 0.00 0.01 0.00 31 1007.2
20260507213534 72 299 6.0 12.0 0.00 0.01 0.00 29 1007.1
20260507213027 72 340 7.0 14.0 0.00 0.01 0.00 30 1007.0
20260507212543 72 342 4.0 15.0 0.00 0.01 0.00 30 1007.2
20260507212043 72 301 8.0 15.0 0.00 0.01 0.00 29 1007.1
20260507211536 72 303 4.0 13.0 0.00 0.01 0.00 29 1007.2
20260507211037 72 325 4.0 13.0 0.00 0.01 0.00 29 1007.3
20260507210555 72 300 6.0 18.0 0.00 0.01 0.00 31 1007.1
20260507210027 72 239 9.0 18.0 0.00 0.01 0.00 29 1007.1
20260507205542 72 282 6.0 12.0 0.00 0.01 0.00 28 1007.1
20260507205041 72 241 6.0 11.0 0.00 0.01 0.00 29 1007.1
20260507204531 72 329 5.0 16.0 0.00 0.01 0.00 29 1007.4
20260507204025 73 323 8.0 16.0 0.00 0.01 0.00 28 1007.4
20260507203543 73 321 7.0 11.0 0.00 0.01 0.00 30 1007.4
20260507203037 72 318 2.0 14.0 0.00 0.01 0.00 30 1007.4
20260507202528 72 332 9.0 14.0 0.00 0.01 0.00 30 1007.4
20260507202047 72 286 1.0 10.0 0.00 0.01 0.00 31 1007.4
20260507201545 72 275 5.0 10.0 0.00 0.01 0.00 29 1007.4
20260507201043 72 252 6.0 10.0 0.00 0.01 0.00 30 1007.5
20260507200542 72 190 3.0 8.0 0.00 0.01 0.00 31 1007.5
20260507200037 72 280 4.0 9.0 0.00 0.01 0.00 32 1007.5
20260507195530 71 319 3.0 6.0 0.00 0.01 0.00 31 1007.6
20260507195025 71 296 2.0 7.0 0.00 0.01 0.00 31 1007.5
20260507194604 72 236 1.0 7.0 0.00 0.01 0.00 29 1007.7
20260507194036 72 342 4.0 10.0 0.00 0.01 0.00 33 1007.8
20260507193530 73 261 4.0 13.0 0.00 0.01 0.00 33 1007.9
20260507193026 72 257 4.0 14.0 0.00 0.01 0.00 31 1008.0
20260507192542 72 274 7.0 14.0 0.00 0.01 0.00 32 1008.1
20260507192036 72 265 5.0 12.0 0.00 0.01 0.00 35 1008.2
20260507191530 72 248 4.0 12.0 0.00 0.01 0.00 34 1008.1
20260507191106 71 298 5.0 12.0 0.00 0.01 0.00 32 1008.3
20260507190538 71 245 7.0 12.0 0.00 0.01 0.00 34 1008.3
20260507190041 71 360 4.0 12.0 0.00 0.01 0.00 29 1008.3
20260507185538 71 32 6.0 12.0 0.00 0.01 0.00 32 1008.4
20260507185035 71 167 4.0 10.0 0.00 0.01 0.00 29 1008.4
20260507184529 71 277 4.0 14.0 0.00 0.01 0.00 35 1008.5
20260507184032 70 323 7.0 14.0 0.00 0.01 0.00 35 1008.6
20260507183526 71 281 3.0 10.0 0.00 0.01 0.00 32 1008.6
20260507183043 71 240 3.0 5.0 0.00 0.01 0.00 35 1008.6
20260507182601 70 294 1.0 9.0 0.00 0.01 0.00 36 1008.6
20260507182036 70 224 2.0 9.0 0.00 0.01 0.00 32 1008.7
20260507181530 70 350 5.0 8.0 0.00 0.01 0.00 36 1008.8
20260507181027 69 338 3.0 5.0 0.00 0.01 0.00 34 1008.8
20260507180540 69 230 1.0 7.0 0.00 0.01 0.00 38 1008.9
20260507180033 68 252 2.0 9.0 0.00 0.01 0.00 36 1009.0